Weather History for Fayetteville, AR

Change the Weather History Date:

Tuesday, April 23, 2013

  Actual Average Record
Temperature  
Mean Temperature 51 °F 59 °F  
Max Temperature 65 °F 71 °F 88 °F (1989)
Min Temperature 36 °F 47 °F 30 °F (1951)
Degree Days  
Heating Degree Days 14 7  
Month to date heating degree days 244 227  
Since 1 July heating degree days 3960 4056  
Cooling Degree Days 0 1  
Month to date cooling degree days 28 20  
Year to date cooling degree days 29 24  
Moisture  
Dew Point 46 °F    
Average Humidity 76    
Maximum Humidity 100    
Minimum Humidity 52    
Precipitation  
Precipitation 0.08 in 0.17 in 2.28 in (2011)
Month to date precipitation 3.89 3.38  
Year to date precipitation 14.22 12.98  
Sea Level Pressure  
Sea Level Pressure 29.98 in    
Wind  
Wind Speed 10 mph (NW)    
Max Wind Speed 20 mph    
Max Gust Speed 26 mph    
Visibility 7 miles    
Events Rain    
T = Trace of Precipitation, MM = Missing Value Source: NWS Daily Summary

Daily Weather History Graph

Daily Weather History Graph

Search for Another Location

Airport:

Trip Planner

Search our weather history database for the weather conditions in past years. The results will help you decide how hot, cold, wet, or windy it might be!

Date:

Astronomy

Apr. 23, 2013 Rise Set
Actual Time 6:33 AM CDT 7:57 PM CDT
Civil Twilight 6:06 AM CDT 8:24 PM CDT
Nautical Twilight 5:33 AM CDT 8:56 PM CDT
Astronomical Twilight 5:00 AM CDT 9:30 PM CDT
Moon 5:56 PM CDT (4/23) 4:57 AM CDT (4/23)
Length of Visible Light 14h 18m
Length of Day
13h 24m
Waxing Gibbous, 94% of the Moon is Illuminated
Apr 23
Waxing Gibbous
Apr 25
Full
May 2
Last Quarter
May 9
New
May 17
First Quarter

Hourly Weather History & Observations

Time (CDT) Temp. Windchill Dew Point Humidity Pressure Visibility Wind Dir Wind Speed Gust Speed Precip Events Conditions
12:53 AM 54.0 °F - 46.9 °F 77% 29.95 in 10.0 mi Calm Calm - N/A   Overcast
1:53 AM 57.9 °F - 46.9 °F 67% 29.93 in 10.0 mi Calm Calm - N/A   Clear
2:53 AM 63.0 °F - 45.0 °F 52% 29.86 in 10.0 mi SSE 15.0 mph 20.7 mph N/A   Partly Cloudy
3:53 AM 63.0 °F - 45.0 °F 52% 29.85 in 10.0 mi South 11.5 mph - N/A   Clear
4:53 AM 60.8 °F - 46.4 °F 59% 29.84 in 10.0 mi SSE 10.4 mph - N/A Rain Light Rain
5:53 AM 62.1 °F - 46.0 °F 56% 29.83 in 10.0 mi South 12.7 mph - 0.00 in   Mostly Cloudy
6:53 AM 62.1 °F - 46.9 °F 58% 29.83 in 10.0 mi South 17.3 mph 23.0 mph N/A   Mostly Cloudy
7:53 AM 63.0 °F - 48.0 °F 58% 29.88 in 10.0 mi WSW 9.2 mph 20.7 mph N/A   Mostly Cloudy
8:53 AM 62.1 °F - 50.0 °F 65% 29.90 in 10.0 mi SW 4.6 mph - N/A   Overcast
9:53 AM 64.0 °F - 51.1 °F 63% 29.90 in 10.0 mi South 3.5 mph - N/A   Overcast
10:53 AM 64.0 °F - 50.0 °F 60% 29.90 in 10.0 mi SSW 6.9 mph - N/A   Overcast
11:53 AM 63.0 °F - 51.1 °F 65% 29.91 in 10.0 mi SW 12.7 mph 18.4 mph N/A   Overcast
12:53 PM 62.1 °F - 52.0 °F 70% 29.91 in 10.0 mi SSW 17.3 mph 23.0 mph N/A   Overcast
1:53 PM 57.0 °F - 54.0 °F 89% 29.91 in 7.0 mi WNW 10.4 mph - 0.00 in Rain Light Rain
2:13 PM 53.6 °F - 51.8 °F 94% 29.93 in 5.0 mi WNW 10.4 mph - 0.00 in Rain Light Rain
2:53 PM 48.0 °F - 46.9 °F 96% 29.94 in 4.0 mi NW 15.0 mph - 0.00 in   Overcast
3:53 PM 44.1 °F 37.4 °F 43.0 °F 96% 29.96 in 1.8 mi NW 13.8 mph - 0.01 in Rain Light Rain
4:20 PM 42.8 °F 37.5 °F 42.8 °F 100% 29.98 in 2.0 mi NNW 9.2 mph - 0.01 in   Overcast
4:53 PM 42.1 °F 36.1 °F 42.1 °F 100% 29.98 in 2.0 mi NNW 10.4 mph - 0.01 in Rain Light Rain
5:32 PM 41.0 °F 34.7 °F 41.0 °F 100% 29.99 in 2.5 mi NNW 10.4 mph - 0.01 in Rain Light Rain
5:41 PM 39.2 °F 32.0 °F 39.2 °F 100% 30.00 in 3.0 mi NNW 11.5 mph - 0.01 in Rain Light Rain
5:53 PM 39.9 °F 33.9 °F 39.9 °F 100% 30.00 in 3.0 mi NNW 9.2 mph - 0.02 in Rain Light Rain
5:57 PM 39.2 °F 34.2 °F 39.2 °F 100% 30.01 in 2.5 mi North 6.9 mph - 0.00 in Rain Light Rain
6:08 PM 39.2 °F 35.0 °F 39.2 °F 100% 30.01 in 3.0 mi NNW 5.8 mph - 0.01 in Rain Light Rain
6:18 PM 39.2 °F 32.5 °F 39.2 °F 100% 30.01 in 5.0 mi NNW 10.4 mph - 0.01 in Rain Light Rain
6:30 PM 39.2 °F 32.0 °F - N/A% 30.02 in 3.0 mi NNW 11.5 mph - 0.02 in Rain Light Rain
6:53 PM 39.0 °F 32.8 °F - N/A% 30.02 in 3.0 mi NNW 9.2 mph - 0.02 in Rain Light Rain
7:27 PM 39.2 °F 35.0 °F - N/A% 30.03 in 2.5 mi NNW 5.8 mph - 0.01 in Rain Light Rain
7:49 PM 39.2 °F 32.5 °F - N/A% 30.04 in 3.0 mi NNW 10.4 mph - 0.02 in   Overcast
7:53 PM 39.0 °F 32.3 °F - N/A% 30.04 in 4.0 mi NNW 10.4 mph - 0.02 in   Haze
8:24 PM 39.2 °F 33.0 °F - N/A% 30.05 in 10.0 mi North 9.2 mph - N/A   Overcast
8:42 PM 39.2 °F 33.6 °F - N/A% 30.06 in 10.0 mi North 8.1 mph - N/A   Overcast
8:53 PM 39.0 °F 33.4 °F - N/A% 30.06 in 10.0 mi NNW 8.1 mph - N/A   Overcast
9:14 PM 37.4 °F 30.8 °F - N/A% 30.08 in 10.0 mi NNW 9.2 mph - N/A   Overcast
9:23 PM 37.4 °F 30.8 °F - N/A% 30.08 in 10.0 mi North 9.2 mph - N/A   Overcast
9:31 PM 37.4 °F 32.1 °F - N/A% 30.09 in 10.0 mi North 6.9 mph - N/A   Overcast
9:46 PM 37.4 °F 30.3 °F - N/A% 30.09 in 10.0 mi North 10.4 mph 18.4 mph N/A   Overcast
9:53 PM 37.9 °F 32.7 °F - N/A% 30.10 in 9.0 mi North 6.9 mph - N/A   Overcast
10:33 PM 37.4 °F 29.3 °F - N/A% 30.11 in 10.0 mi NNW 12.7 mph 18.4 mph 0.00 in   Overcast
10:53 PM 37.0 °F 29.8 °F - N/A% 30.11 in 10.0 mi North 10.4 mph 16.1 mph 0.00 in   Overcast
11:53 PM 37.0 °F 30.4 °F - N/A% 30.12 in 10.0 mi NNW 9.2 mph - N/A   Overcast